TimeEST,TemperatureF,Dew PointF,Humidity,Sea Level PressureIn,VisibilityMPH,Wind Direction,Wind SpeedMPH,Gust SpeedMPH,PrecipitationIn,Events,Conditions,WindDirDegrees,DateUTC
12:00 AM,12.2,3.2,67,30.41,15.0,NNW,11.5,-,N/A,,Partly Cloudy,340,2012-11-30 05:00:00
1:00 AM,10,2,59,30.44,15,North,6.9,,,,,350,2012-11-30 06:00:00
1:00 AM,10.4,3.2,73,30.44,15.0,North,5.8,-,N/A,,Clear,350,2012-11-30 06:00:00
2:00 AM,8.6,1.4,73,30.47,15.0,NW,3.5,-,N/A,,Clear,320,2012-11-30 07:00:00
3:00 AM,8.6,1.4,73,30.49,15.0,WNW,2.3,-,N/A,,Clear,300,2012-11-30 08:00:00
4:00 AM,10.4,1.4,67,30.50,15.0,North,2.3,-,N/A,,Partly Cloudy,360,2012-11-30 09:00:00
5:00 AM,6.8,1.4,79,30.53,15.0,North,3.5,-,N/A,,Partly Cloudy,360,2012-11-30 10:00:00
6:00 AM,8.6,1.4,73,30.54,15.0,North,5.8,-,N/A,,Scattered Clouds,350,2012-11-30 11:00:00
7:00 AM,8,1,61,30.57,15,North,4.6,,,,Scattered Clouds,0,2012-11-30 12:00:00
7:00 AM,8.6,1.4,73,30.57,15.0,North,5.8,-,N/A,,Scattered Clouds,360,2012-11-30 12:00:00
8:00 AM,8.6,1.4,73,30.59,30.0,NNE,8.1,-,N/A,,Partly Cloudy,20,2012-11-30 13:00:00
9:00 AM,10.4,3.2,73,30.61,30.0,North,4.6,-,N/A,,Scattered Clouds,360,2012-11-30 14:00:00
10:00 AM,14.0,3.2,62,30.62,30.0,NNE,6.9,-,N/A,,Mostly Cloudy,30,2012-11-30 15:00:00
11:00 AM,14.0,3.2,62,30.61,30.0,NE,5.8,-,N/A,,Mostly Cloudy,40,2012-11-30 16:00:00
12:00 PM,15.8,5.0,62,30.61,30.0,Calm,Calm,-,N/A,,Mostly Cloudy,0,2012-11-30 17:00:00
1:00 PM,16,5,47,30.60,28,East,2.3,,,,Scattered Clouds,90,2012-11-30 18:00:00
1:00 PM,15.8,5.0,62,30.60,30.0,East,3.5,-,N/A,,Mostly Cloudy,80,2012-11-30 18:00:00
2:00 PM,15.8,3.2,58,30.60,30.0,East,3.5,-,N/A,,Mostly Cloudy,80,2012-11-30 19:00:00
3:00 PM,15.8,3.2,58,30.60,30.0,East,6.9,-,N/A,,Overcast,80,2012-11-30 20:00:00
4:00 PM,15.8,3.2,58,30.61,15.0,NE,6.9,-,N/A,,Overcast,40,2012-11-30 21:00:00
5:00 PM,15.8,3.2,58,30.62,15.0,NNE,9.2,-,N/A,,Overcast,30,2012-11-30 22:00:00
6:00 PM,15.8,5.0,62,30.63,15.0,NE,8.1,-,N/A,,Overcast,40,2012-11-30 23:00:00
7:00 PM,15,4,46,30.63,15,NE,9.2,,,,Clear,50,2012-12-01 00:00:00
7:00 PM,14.0,3.2,62,30.63,15.0,NE,9.2,-,N/A,,Mostly Cloudy,50,2012-12-01 00:00:00
8:00 PM,14.0,3.2,62,30.63,15.0,ENE,9.2,-,N/A,,Overcast,60,2012-12-01 01:00:00
9:00 PM,14.0,1.4,57,30.65,15.0,NE,11.5,-,N/A,,Scattered Clouds,50,2012-12-01 02:00:00
10:00 PM,12.2,1.4,62,30.64,15.0,ENE,11.5,-,N/A,,Partly Cloudy,60,2012-12-01 03:00:00
11:00 PM,12.2,3.2,67,30.63,15.0,ENE,10.4,-,N/A,,Partly Cloudy,60,2012-12-01 04:00:00